Weather History for Opa Locka, FL

Change the Weather History Date:

Friday, February 15, 2013

  Actual Average Record
Temperature  
Mean Temperature 68 °F -  
Max Temperature 73 °F 77 °F 85 °F (1990)
Min Temperature 64 °F 59 °F 41 °F (1960)
Cooling Degree Days 4    
Growing Degree Days 18 (Base 50)    
Moisture  
Dew Point 65 °F    
Average Humidity 93    
Maximum Humidity 100    
Minimum Humidity 73    
Precipitation  
Precipitation 0.84 in - - ()
Sea Level Pressure  
Sea Level Pressure 29.99 in    
Wind  
Wind Speed 6 mph (North)    
Max Wind Speed 13 mph    
Max Gust Speed -    
Visibility 8 miles    
Events Rain    
Averages and records for this station are not official NWS values.
T = Trace of Precipitation, MM = Missing Value Source: NWS Daily Summary

Daily Weather History Graph

Daily Weather History Graph

Search for Another Location

Airport:

Trip Planner

Search our weather history database for the weather conditions in past years. The results will help you decide how hot, cold, wet, or windy it might be!

Date:

Astronomy

Feb. 15, 2013 Rise Set
Actual Time 6:56 AM EST 6:14 PM EST
Civil Twilight 6:32 AM EST 6:38 PM EST
Nautical Twilight 6:05 AM EST 7:05 PM EST
Astronomical Twilight 5:38 AM EST 7:32 PM EST
Moon 10:09 AM EST (2/15) 11:32 PM EST (2/15)
Length of Visible Light 12h 05m
Length of Day
11h 18m
Waxing Crescent, 30% of the Moon is Illuminated
Feb 15
Waxing Crescent
Feb 17
First Quarter
Feb 25
Full
Mar 4
Last Quarter
Mar 11
New

Hourly Weather History & Observations

Time (EST) Temp. Dew Point Humidity Pressure Visibility Wind Dir Wind Speed Gust Speed Precip Events Conditions
12:00 AM 64.4 °F 62.6 °F 94% 30.02 in 7.0 mi North 8.1 mph - 0.03 in Rain Heavy Rain
12:41 AM 64.4 °F 62.6 °F 94% 30.00 in 10.0 mi NNE 6.9 mph - 0.08 in Rain Light Rain
12:53 AM 64.0 °F 62.1 °F 93% 30.01 in 10.0 mi North 4.6 mph - 0.09 in Rain Light Rain
1:00 AM 64.4 °F 62.6 °F 94% 30.01 in 10.0 mi North 4.6 mph - 0.00 in Rain Light Rain
1:53 AM 64.0 °F 62.1 °F 93% 29.99 in 8.0 mi North 5.8 mph - 0.03 in Rain Rain
2:23 AM 64.4 °F 62.6 °F 94% 29.97 in 9.0 mi North 3.5 mph - 0.04 in Rain Light Rain
2:33 AM 64.4 °F 62.6 °F 94% 29.97 in 9.0 mi NNW 6.9 mph - 0.05 in Rain Light Rain
2:53 AM 64.0 °F 63.0 °F 96% 29.98 in 10.0 mi North 3.5 mph - 0.06 in Rain Light Rain
3:03 AM 64.4 °F 62.6 °F 94% 29.97 in 8.0 mi NNE 3.5 mph - 0.03 in Rain Light Rain
3:17 AM 64.4 °F 64.4 °F 100% 29.98 in 10.0 mi Calm Calm - 0.03 in Rain Light Rain
3:53 AM 64.0 °F 63.0 °F 96% 29.98 in 7.0 mi NNW 5.8 mph - 0.07 in Rain Light Rain
4:53 AM 64.9 °F 64.0 °F 97% 29.97 in 10.0 mi Calm Calm - 0.01 in   Overcast
5:22 AM 64.4 °F 64.4 °F 100% 29.97 in 10.0 mi North 4.6 mph - 0.01 in Rain Light Rain
5:53 AM 64.9 °F 64.9 °F 100% 29.99 in 10.0 mi NNW 4.6 mph - 0.01 in   Overcast
6:53 AM 66.0 °F 66.0 °F 100% 29.99 in 10.0 mi North 5.8 mph - 0.00 in   Overcast
7:09 AM 66.2 °F 66.2 °F 100% 30.01 in 10.0 mi North 5.8 mph - N/A   Overcast
7:31 AM 66.2 °F 66.2 °F 100% 30.00 in 10.0 mi NE 5.8 mph - N/A   Overcast
7:53 AM 66.9 °F 66.9 °F 100% 30.01 in 10.0 mi NNE 6.9 mph - N/A   Overcast
8:38 AM 68.0 °F 66.2 °F 94% 30.02 in 10.0 mi NNE 6.9 mph - N/A   Overcast
8:53 AM 68.0 °F 66.9 °F 96% 30.03 in 10.0 mi ENE 6.9 mph - N/A   Overcast
9:53 AM 73.0 °F 68.0 °F 84% 30.02 in 10.0 mi East 8.1 mph - 0.00 in   Mostly Cloudy
10:53 AM 73.9 °F 66.0 °F 76% 30.02 in 10.0 mi NE 9.2 mph - N/A   Mostly Cloudy
11:32 AM 73.4 °F 64.4 °F 73% 30.02 in 10.0 mi NE 6.9 mph - N/A   Overcast
11:53 AM 73.9 °F 64.9 °F 73% 30.02 in 10.0 mi NE 6.9 mph - N/A   Overcast
12:46 PM 71.6 °F 68.0 °F 88% 30.01 in 2.0 mi NNW 6.9 mph - 0.08 in Rain Heavy Rain
12:53 PM 71.1 °F 68.0 °F 90% 30.01 in 2.0 mi NNW 10.4 mph - 0.18 in Rain Heavy Rain
1:13 PM 69.8 °F 66.2 °F 88% 30.00 in 2.0 mi North 8.1 mph - 0.08 in Rain Rain
1:23 PM 69.8 °F 68.0 °F 94% 29.99 in 2.0 mi North 8.1 mph - 0.09 in Rain Light Rain
1:44 PM 69.8 °F 66.2 °F 88% 29.98 in 2.0 mi North 12.7 mph - 0.11 in Rain Light Rain
1:51 PM 69.8 °F 66.2 °F 88% 29.98 in 2.0 mi NNW 10.4 mph - 0.11 in Rain Light Rain
1:53 PM 70.0 °F 66.0 °F 87% 29.99 in 2.0 mi NNW 12.7 mph - 0.11 in Rain Light Rain
2:16 PM 68.0 °F 64.4 °F 88% 29.98 in 2.0 mi North 11.5 mph - 0.02 in Rain Light Rain
2:22 PM 68.0 °F 64.4 °F 88% 29.98 in 3.0 mi North 11.5 mph - 0.02 in Rain Light Rain
2:50 PM 68.0 °F 64.4 °F 88% 29.98 in 1.0 mi NNW 9.2 mph - 0.08 in Rain Rain
2:53 PM 68.0 °F 64.9 °F 90% 29.98 in 1.0 mi NNW 9.2 mph - 0.08 in Rain Rain
3:00 PM 68.0 °F 64.4 °F 88% 29.97 in 6.0 mi NNW 9.2 mph - 0.03 in Rain Rain
3:22 PM 68.0 °F 66.2 °F 94% 29.97 in 10.0 mi NNW 6.9 mph - 0.05 in Rain Light Rain
3:34 PM 68.0 °F 64.4 °F 88% 29.97 in 10.0 mi NNW 8.1 mph - 0.05 in   Overcast
3:53 PM 68.0 °F 64.9 °F 90% 29.98 in 7.0 mi NNW 8.1 mph - 0.07 in Rain Rain
4:22 PM 68.0 °F 64.4 °F 88% 29.97 in 10.0 mi North 6.9 mph - 0.02 in Rain Light Rain
4:53 PM 66.9 °F 64.9 °F 93% 29.98 in 2.0 mi North 8.1 mph - 0.03 in Rain Rain
5:15 PM 66.2 °F 64.4 °F 94% 29.96 in 4.0 mi NNE 6.9 mph - 0.01 in Rain Light Rain
5:53 PM 66.9 °F 64.9 °F 93% 29.97 in 4.0 mi NNW 5.8 mph - 0.01 in Rain Light Rain
6:39 PM 66.2 °F 64.4 °F 94% 29.96 in 10.0 mi NNE 8.1 mph - 0.01 in Rain Light Rain
6:49 PM 66.2 °F 64.4 °F 94% 29.96 in 10.0 mi North 5.8 mph - 0.01 in Rain Light Rain
6:53 PM 66.0 °F 64.9 °F 96% 29.97 in 10.0 mi NNE 5.8 mph - 0.01 in Rain Light Rain
7:04 PM 66.2 °F 64.4 °F 94% 29.96 in 10.0 mi NE 4.6 mph - 0.01 in Rain Light Rain
7:53 PM 64.9 °F 63.0 °F 93% 29.98 in 10.0 mi East 4.6 mph - 0.03 in Rain Light Rain
8:53 PM 64.9 °F 64.0 °F 97% 29.98 in 10.0 mi East 4.6 mph - 0.05 in Rain Light Rain
9:50 PM 64.4 °F 64.4 °F 100% 29.97 in 10.0 mi Calm Calm - 0.00 in   Mostly Cloudy
9:53 PM 64.9 °F 64.0 °F 97% 29.98 in 10.0 mi North 3.5 mph - 0.00 in   Overcast
10:53 PM 64.9 °F 64.9 °F 100% 29.98 in 10.0 mi NW 3.5 mph - N/A   Overcast
11:22 PM 64.4 °F 64.4 °F 100% 29.97 in 10.0 mi Calm Calm - N/A   Overcast
11:53 PM 64.9 °F 64.9 °F 100% 29.96 in 9.0 mi West 3.5 mph - N/A   Overcast